小惑星2007 VW266

2007 VW266

English version
Home page
Total 6,336 html files since Dec. 4, 1995
Updated on December 16, 2007

---------------------------------------------------------------------

・ プロフィール

発見日 2007年11月12日
発見光度 21.4等
発見者 Mt. Lemmon Survey

・ 軌道要素

Epoch 2007 Oct. 27.0 TT = JDT 2454400.5                 MPC
M 335.59704              (2000.0)            P               Q
n   0.08120012     Peri.  225.48029     +0.13938689     +0.29598673
a   5.2815933      Node   276.50613     +0.93179886     -0.36218069
e   0.3668102      Incl.  107.99332     -0.33514502     -0.88386481
P  12.14           H   15.0           G   0.15           U   7

・ 光度変化

        H = 15.0  G = 0.15

---------------------------------------------------------------------

軌道要素はM.P.E.C. 2007-W21に掲載されたものです。
光度グラフはComet for Windowsで作成したものです。

---------------------------------------------------------------------

Copyright(C) 1995-2008 Seiichi Yoshida (comet@aerith.net). All rights reserved.